This demonstration page uses our WeatherBlox Daily Observations layout. Learn more.

Left ArrowRight Arrow

Hourly Observations for June 8, 2021

Temp ( °F °C ) Dew Point ( °F °C ) Humidity (%) Winds ( mph kmh ) Pressure ( in mb ) Visibility ( mi km ) Precip ( " mm )
12:15 am 00:15 Clear 74 23.1 67 19.6 81 81 SSE 16 26 29.79 1009 10 16 N/A
12:35 am 00:35 Clear 73 22.9 67 19.5 81 81 S 15 24 29.79 1009 10 16 N/A
12:55 am 00:55 Clear 73 22.5 67 19.2 82 82 SSE 15 24 29.79 1009 10 16 N/A
1:15 am 01:15 Clear 72 22.3 66 19.1 82 82 S 13 20 29.79 1009 10 16 N/A
1:35 am 01:35 Clear 72 22.1 66 19 83 83 S 13 20 29.78 1009 10 16 N/A
1:55 am 01:55 Clear 72 22 66 18.8 82 82 S 14 22 29.79 1009 10 16 N/A
2:15 am 02:15 Clear 71 21.6 66 18.8 84 84 SSE 10 17 29.79 1009 10 16 N/A
2:35 am 02:35 Clear 70 21.3 66 18.7 85 85 SSE 9 15 29.79 1009 10 16 N/A
2:55 am 02:55 Clear 70 21 65 18.6 86 86 SSE 8 13 29.79 1009 10 16 N/A
3:15 am 03:15 Clear 69 20.7 65 18.6 88 88 SSE 8 13 29.81 1009 10 16 N/A
3:35 am 03:35 Clear 69 20.7 65 18.5 87 87 SSE 7 11 29.81 1009 10 16 N/A
3:55 am 03:55 Clear 69 20.5 65 18.5 88 88 SSE 6 9 29.81 1009 10 16 N/A
4:15 am 04:15 Partly Cloudy 68 20.1 65 18.4 90 90 SE 8 13 29.81 1010 10 16 N/A
4:35 am 04:35 Mostly Cloudy 69 20.5 65 18.5 88 88 SE 7 11 29.81 1009 10 16 N/A
4:55 am 04:55 Mostly Cloudy 68 20.2 65 18.2 88 88 SE 7 11 29.81 1010 10 16 N/A
5:15 am 05:15 Partly Cloudy 67 19.6 64 18 91 91 SE 5 7 29.82 1010 10 16 N/A
5:35 am 05:35 Clear 67 19.2 64 18 93 93 SSE 6 9 29.82 1010 10 16 N/A
5:55 am 05:55 Clear 66 19.1 64 18 93 93 SE 6 9 29.83 1010 10 16 N/A
6:15 am 06:15 Partly Cloudy 66 19 64 17.8 93 93 SSE 6 9 29.84 1011 10 16 N/A
6:35 am 06:35 Partly Cloudy 66 19.1 64 18 93 93 SE 6 9 29.84 1010 10 16 N/A
6:55 am 06:55 Mostly Cloudy 67 19.7 65 18.2 91 91 SE 5 7 29.84 1011 10 16 N/A
7:15 am 07:15 Cloudy 68 20.2 65 18.3 89 89 SE 8 13 29.84 1011 10 16 N/A
7:35 am 07:35 Mostly Cloudy 69 20.6 65 18.5 88 88 SSE 7 11 29.85 1011 10 16 N/A
7:55 am 07:55 Mostly Cloudy 70 20.9 66 18.7 87 87 SE 8 13 29.84 1011 10 16 N/A
8:15 am 08:15 Mostly Cloudy 70 21.2 66 19 87 87 SSE 8 13 29.84 1011 10 16 N/A
8:35 am 08:35 Partly Cloudy 72 22.1 66 19 83 83 SSE 14 22 29.83 1010 10 16 N/A
8:55 am 08:55 Sunny 72 22.4 67 19.2 82 82 SSE 9 15 29.84 1011 10 16 N/A
9:15 am 09:15 Mostly Cloudy 74 23.3 67 19.3 78 78 S 13 20 29.83 1010 10 16 N/A
9:35 am 09:35 Partly Cloudy 76 24.2 67 19.7 76 76 SSE 9 15 29.84 1010 10 16 N/A
9:55 am 09:55 Mostly Cloudy 76 24.2 67 19.5 75 75 S 10 17 29.84 1010 10 16 N/A
10:15 am 10:15 Mostly Cloudy 78 25.3 68 19.8 72 72 S 8 13 29.83 1010 10 16 N/A
10:35 am 10:35 Partly Cloudy 80 26.5 68 20.2 68 68 S 9 15 29.82 1010 10 16 N/A
10:55 am 10:55 Mostly Cloudy 81 27.4 68 20.1 64 64 SSE 14 22 29.81 1009 10 16 N/A
11:15 am 11:15 Mostly Cloudy 81 27.1 68 19.8 64 64 SSE 15 24 29.82 1010 10 16 N/A
11:35 am 11:35 Mostly Cloudy 82 27.9 67 19.3 60 60 SSE 14 22 29.82 1010 10 16 N/A
11:55 am 11:55 Partly Cloudy 83 28.2 66 18.8 57 57 SSE 12 19 29.81 1010 10 16 N/A
12:15 pm 12:15 Partly Cloudy 83 28.4 66 18.7 56 56 SSE 15 24 29.81 1010 10 16 N/A
12:35 pm 12:35 Partly Cloudy 84 28.8 66 18.8 55 55 SSE 15 24 29.81 1009 10 16 N/A
12:55 pm 12:55 Partly Cloudy 85 29.2 66 18.7 53 53 SSE 13 20 29.81 1009 10 16 N/A
1:15 pm 13:15 Partly Cloudy 85 29.4 66 18.8 53 53 SE 15 24 29.80 1009 10 16 N/A
1:35 pm 13:35 Partly Cloudy 85 29.5 65 18.1 50 50 SSE 15 24 29.79 1009 10 16 N/A
1:55 pm 13:55 Partly Cloudy 86 29.8 65 18.1 49 49 ESE 15 24 29.79 1009 10 16 N/A
2:15 pm 14:15 Partly Cloudy 86 29.9 64 17.9 49 49 SE 13 20 29.79 1009 10 16 N/A
2:35 pm 14:35 Partly Cloudy 85 29.7 64 17.5 48 48 ESE 16 26 29.79 1009 10 16 N/A
2:55 pm 14:55 Sunny 86 30 63 17.3 46 46 SSE 16 26 29.79 1009 10 16 N/A
3:15 pm 15:15 Partly Cloudy 87 30.3 64 17.7 47 47 SE 16 26 29.78 1008 10 16 N/A
3:35 pm 15:35 Partly Cloudy 87 30.3 62 16.8 44 44 SSE 14 22 29.78 1008 10 16 N/A
3:55 pm 15:55 Partly Cloudy 87 30.6 61 16.2 42 42 SE 15 24 29.77 1008 10 16 N/A
4:15 pm 16:15 Sunny 87 30.5 61 16.3 42 42 SE 14 22 29.77 1008 10 16 N/A
4:35 pm 16:35 Sunny 87 30.5 61 16.1 42 42 ESE 16 26 29.77 1008 10 16 N/A
4:55 pm 16:55 Sunny 87 30.4 61 16 42 42 SSE 17 28 29.76 1008 10 16 N/A
5:15 pm 17:15 Sunny 87 30.8 62 16.6 42 42 SE 15 24 29.75 1008 10 16 N/A
5:35 pm 17:35 Sunny 86 30.1 61 16.1 43 43 SSE 17 28 29.76 1008 10 16 N/A
5:55 pm 17:55 Sunny 86 30 61 15.9 42 42 SSE 17 28 29.75 1007 10 16 N/A
6:15 pm 18:15 Sunny 85 29.6 62 16.5 45 45 SE 16 26 29.75 1008 10 16 N/A
6:35 pm 18:35 Sunny 85 29.5 62 16.6 46 46 SE 16 26 29.75 1008 10 16 N/A
6:55 pm 18:55 Sunny 84 29 63 17.2 49 49 SSE 22 35 29.76 1008 10 16 N/A
7:15 pm 19:15 Sunny 83 28.5 63 17 50 50 SSE 17 28 29.76 1008 10 16 N/A
7:35 pm 19:35 Sunny 83 28.1 63 17 51 51 SSE 16 26 29.77 1008 10 16 N/A
7:55 pm 19:55 Sunny 82 27.5 63 17 53 53 SSE 14 22 29.78 1008 10 16 N/A
8:15 pm 20:15 Sunny 81 27.1 63 17 54 54 SSE 14 22 29.78 1009 10 16 N/A
8:35 pm 20:35 Sunny 79 26.3 63 17.1 57 57 SSE 15 24 29.80 1009 10 16 N/A
8:55 pm 20:55 Sunny 79 25.9 63 17.2 59 59 SSE 13 20 29.80 1009 10 16 N/A
9:15 pm 21:15 Clear 77 25 63 17 61 61 SSE 9 15 29.81 1009 10 16 N/A
9:35 pm 21:35 Clear 77 24.8 62 16.7 61 61 SSE 9 15 29.81 1010 10 16 N/A
9:55 pm 21:55 Clear 76 24.5 62 16.7 62 62 SE 9 15 29.82 1010 10 16 N/A
10:15 pm 22:15 Clear 75 24 62 16.9 65 65 SE 10 17 29.83 1010 10 16 N/A
10:35 pm 22:35 Clear 75 23.9 63 17 65 65 SE 10 17 29.84 1010 10 16 N/A
10:55 pm 22:55 Clear 74 23.5 63 17.2 68 68 SSE 9 15 29.85 1011 10 16 N/A
11:15 pm 23:15 Clear 74 23.3 63 17.4 70 70 SSE 12 19 29.85 1011 10 16 N/A
11:35 pm 23:35 Clear 73 22.6 64 17.5 73 73 SSE 10 17 29.86 1011 10 16 N/A
11:55 pm 23:55 Clear 72 22.4 64 17.5 74 74 SSE 12 19 29.85 1011 10 16 N/A

Powered by AerisWeather